Wind_Speed
51 54 56 59 63 67 71 74 77 81 83 86 88 88 85 81 80 79 77 73 69 63 59 56 54 55 55 55 55 54 51 50 49 48 49 55 65 74 82 91 100 106 109
53 55 57 61 65 69 72 75 78 81 84 87 89 87 82 79 78 76 74 70 65 62 59 58 58 59 60 60 61 60 57 54 53 50 47 48 56 67 77 86 95 103 109
53 55 58 63 67 70 73 76 79 83 86 88 88 83 80 78 77 74 70 66 62 61 61 62 63 65 66 66 65 64 62 58 56 54 51 48 50 59 68 80 90 98 104
53 56 60 64 68 71 74 76 80 84 87 88 85 82 79 77 76 73 68 64 62 62 64 67 69 71 72 72 70 68 65 62 57 56 54 51 48 53 61 71 84 92 98
54 56 61 65 69 72 74 77 81 85 86 86 83 80 79 78 75 71 66 62 62 65 69 72 75 76 76 74 72 69 67 63 59 55 54 52 50 49 56 63 75 86 92
54 57 62 66 69 72 75 78 82 84 85 84 81 79 78 76 74 69 65 64 65 69 73 75 74 71 67 64 62 61 60 59 56 53 52 51 50 50 51 57 66 79 87
54 58 62 67 70 73 75 78 81 83 84 82 79 78 77 75 73 70 67 67 70 74 76 73 68 62 55 50 46 45 46 49 50 49 49 48 48 48 49 52 60 71 82
55 59 63 67 70 73 75 78 81 83 82 80 77 76 75 74 72 70 70 72 76 78 76 71 64 55 48 40 33 28 29 34 39 42 43 44 45 46 47 49 55 65 76
55 59 63 68 71 73 75 78 81 82 80 78 76 74 73 72 71 70 71 74 78 79 75 67 57 48 42 35 27 18 14 20 27 33 37 39 42 43 45 47 50 59 70
55 59 64 68 71 73 75 78 80 80 79 76 74 72 72 71 71 70 72 75 78 77 71 61 50 43 39 33 26 18 8 6 15 23 28 33 37 39 41 44 47 53 65
55 59 64 68 71 73 75 78 79 79 77 74 72 71 70 70 70 71 72 75 77 75 68 56 46 40 36 32 27 22 13 4 6 14 21 27 31 34 37 40 44 49 59
56 60 64 68 70 72 74 77 78 77 75 72 70 69 69 69 69 70 72 75 76 74 66 52 42 37 33 29 24 21 15 7 0 8 15 21 26 29 32 36 40 45 54
56 60 64 68 70 72 74 76 77 76 73 70 68 68 68 68 69 69 71 73 75 73 65 51 39 33 30 27 23 18 13 7 3 7 13 17 20 24 27 31 36 41 49
57 60 64 68 70 71 73 75 76 74 71 69 67 66 66 67 68 69 70 72 74 73 67 55 40 32 28 24 21 18 14 9 6 8 11 14 17 20 23 27 31 37 44
57 60 64 68 69 71 72 74 74 72 70 67 65 64 64 66 67 68 69 71 73 73 69 60 45 34 28 24 21 18 15 11 7 7 8 10 12 15 19 23 28 33 41
58 61 64 67 69 70 71 73 73 71 69 66 64 62 62 64 66 67 68 69 71 72 71 65 53 40 31 26 22 19 16 12 8 6 6 7 9 13 16 19 24 30 37
59 61 64 67 68 69 70 71 71 70 68 65 63 61 61 62 65 66 67 67 69 71 71 68 61 48 37 29 24 19 16 12 8 5 3 5 9 12 15 17 21 27 34
60 61 64 67 68 68 69 70 70 69 67 64 62 60 59 61 63 64 65 66 67 68 70 70 65 56 45 35 28 23 17 13 8 3 2 6 9 12 15 17 21 25 31
60 62 64 66 67 67 68 69 69 68 66 63 60 59 58 59 60 62 64 64 65 66 68 69 68 62 52 42 33 27 21 15 9 4 3 8 11 13 16 18 21 24 29
61 62 64 66 66 66 67 67 68 68 66 62 59 57 57 58 59 60 62 63 63 64 66 67 68 66 59 49 39 31 24 18 11 5 4 9 12 14 17 19 21 24 28
62 62 63 65 66 65 65 66 67 66 65 62 59 56 56 56 57 58 59 61 62 63 64 65 66 66 63 55 45 36 27 20 13 7 5 9 12 15 17 19 21 23 27
63 62 63 64 65 64 64 65 66 66 64 61 58 56 55 54 55 56 57 58 60 60 60 61 63 64 63 60 52 43 33 24 16 9 6 9 12 15 16 18 20 23 26
64 62 62 63 64 63 63 63 64 65 63 61 58 56 54 53 53 54 54 55 57 58 58 59 60 61 62 61 58 50 39 29 20 11 7 9 12 14 16 18 19 21 24
65 62 62 62 63 62 61 62 63 63 62 59 57 55 53 53 52 52 52 53 54 55 56 57 58 59 59 60 60 56 46 35 24 15 8 8 10 13 15 17 18 20 22
66 63 61 61 62 61 60 61 61 62 61 59 56 54 53 52 51 51 52 52 53 55 56 56 56 56 57 59 59 58 53 43 31 20 11 7 9 12 14 16 17 18 20
66 63 60 60 60 60 59 59 59 60 60 58 56 54 52 50 50 50 51 52 52 53 53 54 55 55 55 56 55 55 54 49 39 27 16 8 7 10 13 14 16 17 18
Wind_Direction
328 330 332 333 333 332 331 331 331 329 327 326 325 325 325 324 323 322 321 318 315 311 307 303 300 297 295 292 290 288 285 283 279 271 258 246 238 232 227 224 220 218 217
330 333 334 334 334 333 333 332 331 329 328 328 327 327 327 326 326 324 323 319 315 311 307 303 299 296 293 290 287 284 282 279 277 274 266 252 241 235 228 225 222 219 216
333 335 335 336 335 334 334 332 331 330 330 329 329 329 329 328 327 326 324 320 315 311 307 304 300 297 293 289 285 281 278 275 272 271 267 258 245 236 231 226 223 220 218
335 336 336 337 336 335 334 333 332 332 331 331 331 331 331 330 329 328 326 322 318 315 311 307 303 298 293 288 283 278 274 271 267 264 263 259 251 238 230 228 224 221 219
336 337 337 338 337 336 335 335 334 333 332 332 333 333 333 333 332 331 329 325 322 318 315 311 306 301 295 289 283 276 271 267 263 259 256 256 252 243 231 226 225 221 220
336 337 338 338 338 337 337 336 335 334 334 334 335 335 335 335 335 333 331 329 326 324 320 317 313 308 302 294 285 276 268 262 258 254 251 249 248 245 234 224 223 222 220
336 338 339 339 338 338 338 337 336 336 336 336 337 337 338 338 337 336 335 334 333 330 328 326 324 321 315 307 294 279 266 257 251 248 245 244 243 242 236 226 220 221 220
337 339 340 340 340 340 339 339 338 337 338 338 339 339 340 340 340 340 340 339 339 338 337 336 335 335 333 327 316 292 267 250 243 240 240 240 240 238 235 228 220 218 219
338 339 340 341 341 341 340 340 339 339 340 340 341 342 343 343 344 344 344 344 344 343 343 342 344 347 349 348 344 327 281 247 236 235 235 236 237 236 233 228 221 216 216
338 340 342 342 342 342 342 341 341 341 342 343 343 345 346 347 347 348 348 349 349 348 347 347 350 356 1 8 12 13 360 248 228 229 232 234 235 234 232 227 222 216 214
339 342 343 343 343 343 343 343 343 343 344 345 345 347 348 350 351 351 352 353 353 352 351 351 353 360 8 17 24 30 37 46 221 226 231 234 234 233 231 226 221 215 211
342 343 344 344 345 345 345 344 344 345 346 347 348 349 351 353 354 355 356 357 357 357 356 354 354 0 9 18 24 29 36 44 188 228 232 234 234 233 229 224 220 215 210
343 344 345 346 346 346 346 346 346 346 347 349 350 351 353 355 356 358 359 0 1 1 360 357 354 357 3 11 15 17 19 16 314 249 240 236 233 230 225 222 218 214 208
344 345 346 347 347 348 348 348 348 348 349 350 352 353 355 357 359 0 2 3 4 4 4 1 356 353 356 358 360 0 357 344 311 271 251 240 232 225 220 218 215 211 206
345 346 347 348 349 349 349 349 349 350 350 352 353 355 357 359 1 2 4 5 6 7 8 7 2 354 350 349 347 346 346 337 312 280 258 239 224 215 213 212 210 208 204
346 347 348 349 350 350 351 351 351 351 352 353 355 356 358 0 2 4 5 6 8 9 10 11 9 3 355 350 347 344 340 334 313 285 256 225 206 198 198 200 202 202 200
347 348 349 350 351 352 352 352 352 352 353 355 356 358 359 1 4 5 7 8 9 11 12 13 13 10 5 358 354 350 346 340 329 302 239 194 184 182 183 185 190 194 195
347 348 350 351 352 353 354 353 353 354 355 356 357 359 0 2 4 6 8 9 11 12 14 15 16 15 12 8 2 358 356 353 351 344 181 168 167 169 170 174 179 185 189
348 348 350 351 353 354 355 354 354 355 356 358 358 359 1 3 5 7 9 11 12 13 14 16 17 17 16 14 10 7 6 5 7 22 137 155 157 159 161 165 171 177 183
348 349 350 352 353 355 355 355 356 357 358 359 359 360 2 4 6 8 10 12 13 14 15 17 18 19 19 18 16 14 12 13 17 39 121 148 153 155 158 161 165 171 178
348 349 350 352 353 355 356 356 356 358 359 360 360 1 3 5 7 9 11 12 14 15 16 17 19 20 21 21 20 19 18 19 24 47 110 143 150 153 156 159 162 168 173
348 348 350 351 353 355 356 356 357 358 359 0 1 2 3 5 8 9 11 13 15 16 16 17 19 20 22 23 23 23 22 23 28 47 99 138 149 154 155 157 161 165 171
348 348 349 351 352 355 356 357 357 358 359 0 1 2 3 5 8 10 11 13 15 16 17 18 19 20 22 24 25 25 24 25 30 44 88 130 147 153 156 156 159 163 168
348 347 348 350 352 354 356 357 358 358 359 0 1 2 3 5 7 10 11 13 15 16 17 19 20 20 21 23 26 27 26 27 31 41 72 122 145 152 156 157 159 163 168
347 347 347 349 351 353 356 357 358 359 360 1 1 2 2 3 6 8 11 13 14 15 17 18 19 20 21 22 24 26 27 28 31 37 54 103 145 156 160 162 163 165 170
347 346 346 347 349 352 355 357 358 359 360 1 1 2 2 3 4 6 8 11 13 15 15 16 18 19 21 22 23 24 27 28 30 33 42 70 137 163 168 169 170 171 174
Height
5801 5792 5782 5771 5760 5747 5733 5719 5703 5687 5671 5654 5636 5618 5599 5580 5563 5545 5529 5515 5502 5491 5482 5474 5466 5459 5453 5448 5442 5438 5436 5432 5429 5429 5432 5436 5439 5446 5458 5470 5484 5500 5522
5794 5784 5774 5763 5750 5737 5722 5707 5691 5675 5657 5639 5620 5601 5583 5565 5548 5531 5514 5499 5486 5474 5465 5457 5449 5441 5434 5428 5422 5418 5416 5415 5411 5410 5412 5417 5422 5425 5435 5445 5458 5475 5494
5786 5777 5766 5754 5741 5727 5711 5696 5679 5662 5643 5624 5605 5587 5570 5553 5536 5520 5503 5487 5473 5460 5449 5439 5429 5420 5412 5405 5399 5395 5392 5393 5393 5391 5393 5397 5402 5408 5415 5423 5436 5451 5468
5779 5769 5757 5745 5731 5716 5700 5684 5667 5648 5629 5609 5590 5573 5556 5540 5522 5505 5489 5473 5459 5445 5432 5420 5406 5395 5384 5376 5371 5368 5366 5368 5372 5372 5373 5377 5381 5388 5398 5405 5416 5430 5446
5771 5761 5749 5736 5721 5706 5690 5673 5654 5635 5616 5596 5578 5560 5543 5525 5508 5491 5476 5461 5446 5431 5414 5398 5382 5366 5353 5343 5338 5337 5337 5341 5346 5352 5355 5359 5363 5369 5378 5389 5398 5411 5425
5764 5753 5741 5727 5712 5697 5680 5662 5643 5624 5605 5585 5567 5549 5532 5514 5497 5480 5465 5449 5434 5416 5395 5375 5355 5336 5321 5310 5304 5303 5307 5313 5321 5329 5336 5341 5347 5352 5360 5372 5381 5392 5407
5757 5746 5733 5719 5704 5687 5670 5652 5634 5615 5595 5576 5557 5538 5520 5502 5484 5467 5451 5435 5418 5398 5376 5353 5332 5313 5296 5285 5278 5276 5280 5288 5298 5308 5317 5324 5331 5337 5345 5355 5365 5376 5389
5751 5739 5726 5711 5696 5679 5661 5644 5625 5606 5587 5567 5548 5529 5511 5492 5474 5456 5438 5420 5401 5379 5356 5334 5314 5297 5282 5270 5262 5259 5263 5270 5281 5292 5301 5309 5316 5323 5331 5340 5350 5362 5374
5744 5732 5719 5704 5688 5671 5653 5636 5617 5598 5578 5559 5540 5522 5504 5485 5467 5449 5430 5410 5388 5365 5343 5323 5306 5292 5278 5266 5258 5254 5256 5262 5271 5281 5289 5297 5304 5311 5319 5327 5337 5349 5361
5738 5725 5712 5696 5680 5663 5646 5628 5609 5589 5570 5551 5533 5515 5497 5479 5461 5443 5424 5403 5381 5358 5337 5319 5304 5292 5280 5269 5262 5258 5258 5262 5268 5275 5282 5288 5294 5301 5309 5317 5326 5336 5349
5731 5719 5704 5689 5672 5656 5639 5621 5602 5583 5564 5545 5527 5510 5493 5475 5456 5438 5419 5398 5377 5355 5334 5317 5305 5295 5285 5277 5271 5267 5265 5267 5270 5274 5278 5282 5288 5294 5301 5308 5317 5327 5339
5725 5712 5698 5682 5666 5650 5633 5615 5596 5577 5559 5541 5523 5506 5489 5472 5454 5436 5417 5396 5375 5354 5334 5318 5307 5299 5291 5284 5279 5276 5273 5272 5272 5274 5276 5279 5283 5288 5294 5301 5310 5319 5331
5719 5706 5692 5676 5660 5644 5627 5610 5591 5572 5554 5537 5520 5504 5487 5470 5453 5435 5416 5396 5376 5355 5336 5320 5309 5302 5295 5290 5285 5281 5278 5276 5274 5274 5275 5277 5280 5284 5290 5296 5304 5313 5324
5713 5700 5686 5671 5655 5639 5622 5605 5587 5568 5551 5534 5518 5502 5486 5469 5452 5434 5416 5398 5378 5358 5339 5323 5311 5303 5297 5292 5288 5284 5281 5277 5275 5274 5274 5275 5278 5281 5287 5293 5300 5309 5319
5708 5695 5681 5666 5650 5634 5617 5600 5583 5565 5548 5532 5516 5501 5485 5468 5451 5434 5417 5399 5381 5362 5343 5327 5314 5305 5298 5293 5288 5284 5281 5277 5275 5273 5273 5274 5276 5279 5284 5290 5297 5306 5315
5703 5690 5676 5661 5646 5630 5613 5597 5580 5564 5547 5531 5515 5500 5485 5469 5453 5436 5419 5402 5385 5367 5349 5332 5318 5307 5299 5293 5288 5283 5279 5276 5274 5273 5272 5274 5276 5279 5283 5289 5295 5303 5312
5699 5686 5672 5657 5642 5626 5610 5595 5579 5562 5546 5530 5514 5500 5485 5470 5454 5438 5422 5406 5390 5372 5355 5338 5323 5310 5301 5293 5287 5283 5279 5276 5273 5272 5273 5274 5276 5280 5284 5289 5295 5302 5310
5695 5682 5669 5654 5639 5623 5608 5593 5577 5561 5545 5529 5514 5500 5486 5471 5456 5441 5426 5410 5394 5378 5362 5346 5330 5316 5305 5296 5289 5284 5279 5276 5274 5273 5274 5275 5278 5281 5286 5291 5296 5303 5310
5691 5679 5665 5651 5636 5621 5606 5591 5576 5560 5544 5529 5514 5501 5488 5474 5459 5444 5430 5415 5400 5385 5370 5354 5338 5324 5311 5301 5293 5286 5282 5279 5276 5276 5276 5278 5280 5284 5288 5293 5298 5305 5312
5688 5675 5662 5648 5634 5619 5604 5590 5575 5560 5544 5530 5516 5503 5489 5475 5461 5447 5433 5419 5405 5391 5376 5361 5346 5332 5318 5307 5298 5291 5285 5282 5279 5279 5279 5281 5283 5287 5291 5296 5301 5307 5314
5684 5672 5659 5646 5632 5617 5603 5589 5575 5560 5545 5531 5517 5504 5491 5477 5464 5450 5437 5423 5409 5395 5382 5368 5354 5341 5328 5315 5305 5296 5290 5286 5284 5283 5283 5285 5287 5291 5295 5300 5305 5310 5317
5681 5669 5657 5644 5630 5616 5602 5588 5575 5560 5545 5532 5518 5506 5493 5480 5467 5454 5441 5429 5416 5403 5391 5378 5365 5352 5339 5326 5313 5303 5296 5291 5289 5288 5288 5290 5292 5295 5299 5304 5308 5314 5320
5679 5666 5654 5642 5628 5615 5601 5588 5574 5559 5545 5531 5519 5507 5495 5483 5471 5459 5447 5435 5423 5411 5399 5386 5373 5361 5349 5336 5323 5312 5304 5298 5294 5293 5293 5295 5297 5300 5304 5308 5312 5317 5323
5676 5664 5652 5640 5627 5614 5600 5587 5573 5559 5545 5532 5519 5507 5496 5485 5474 5463 5452 5440 5429 5418 5406 5393 5382 5370 5358 5346 5333 5323 5313 5306 5301 5299 5299 5300 5302 5305 5308 5312 5316 5321 5326
5673 5661 5649 5638 5625 5613 5599 5586 5573 5560 5546 5533 5520 5508 5497 5486 5475 5466 5456 5445 5433 5421 5410 5399 5389 5377 5366 5354 5343 5333 5323 5315 5309 5306 5305 5305 5307 5310 5313 5316 5320 5324 5329
5671 5659 5647 5636 5624 5612 5599 5586 5573 5560 5547 5534 5522 5510 5499 5488 5478 5467 5456 5446 5437 5426 5415 5405 5394 5384 5373 5363 5354 5344 5335 5326 5318 5313 5311 5311 5312 5314 5317 5320 5323 5327 5331